WetterOnline ( http://www.wetteronline.de )

Wetter aktuell Idar-Oberstein

Aktuelles Wetter: Tholey (398m)

6-stündlich | Neueste Meldungen
Ortszeit Temperatur Wetter
Di, 20.02. 13:00 1.6° C wolkig
Di, 20.02. 7:00 -2.3° C bewölkt
Di, 20.02. 1:00 -1.1° C bewölkt
Mo, 19.02. 19:00 -0.1° C bedeckt
Mo, 19.02. 13:00 -0.0° C bedeckt
Mo, 19.02. 7:00 -1.1° C bedeckt
Mo, 19.02. 1:00 -1.8° C bedeckt
So, 18.02. 19:00 -0.2° C leicht bewölkt
Ortszeit Temperatur Wetter
Di, 20.02. 18:00 1.3° C wolkig
Di, 20.02. 17:50 1.3° C wolkig
Di, 20.02. 17:40 1.4° C wolkig
Di, 20.02. 17:30 1.5° C leicht bewölkt
Di, 20.02. 17:20 1.5° C leicht bewölkt
Di, 20.02. 17:10 1.5° C leicht bewölkt
Di, 20.02. 17:00 1.5° C leicht bewölkt
Di, 20.02. 16:30 2.1° C bewölkt
Di, 20.02. 16:00 2.4° C bedeckt
Di, 20.02. 15:30 2.6° C bedeckt
Di, 20.02. 15:00 2.4° C bedeckt
Ortszeit Relative Feuchte Sichtweite
Di, 20.02. 13:00 61% 15 km
Di, 20.02. 7:00 82% 6 km
Di, 20.02. 1:00 82% 6 km
Mo, 19.02. 19:00 75% 10 km
Mo, 19.02. 13:00 73% 13 km
Mo, 19.02. 7:00 79% 13 km
Mo, 19.02. 1:00 84% 8 km
So, 18.02. 19:00 78% 13 km
Ortszeit Relative Feuchte Sichtweite
Di, 20.02. 18:00 65% 10 km
Di, 20.02. 17:50 65% -
Di, 20.02. 17:40 64% -
Di, 20.02. 17:30 62% 12 km
Di, 20.02. 17:20 62% -
Di, 20.02. 17:10 62% -
Di, 20.02. 17:00 61% 14 km
Di, 20.02. 16:30 59% 15 km
Di, 20.02. 16:00 57% 16 km
Di, 20.02. 15:30 56% 16 km
Di, 20.02. 15:00 55% 17 km
Ortszeit Niederschlagsmenge Niederschlagsart
Di, 20.02. 13:00 0.0 l/m2 in 6 Std. -
Di, 20.02. 7:00 0.1 l/m2 in 12 Std. -
Di, 20.02. 1:00 0.1 l/m2 in 6 Std. Schnee
Mo, 19.02. 19:00 0.0 l/m2 in 12 Std. -
Mo, 19.02. 13:00 0.0 l/m2 in 6 Std. -
Mo, 19.02. 7:00 0.0 l/m2 in 12 Std. -
Mo, 19.02. 1:00 0.0 l/m2 in 6 Std. -
So, 18.02. 19:00 0.0 l/m2 in 12 Std. -
Ortszeit Niederschlagsmenge Niederschlagsart
Di, 20.02. 18:00 0.0 l/m2 in 1 Std. -
Di, 20.02. 17:50 keine Meldung -
Di, 20.02. 17:40 keine Meldung -
Di, 20.02. 17:30 0.0 l/m2 in 1 Std. -
Di, 20.02. 17:20 keine Meldung -
Di, 20.02. 17:10 keine Meldung -
Di, 20.02. 17:00 0.0 l/m2 in 1 Std. -
Di, 20.02. 16:30 0.0 l/m2 in 1 Std. -
Di, 20.02. 16:00 0.0 l/m2 in 1 Std. -
Di, 20.02. 15:30 0.0 l/m2 in 1 Std. -
Di, 20.02. 15:00 0.0 l/m2 in 1 Std. -
Ortszeit Stärke Spitze Richtung
km/h Bft. km/h Grad Sektor
Di, 20.02. 13:00 13 3 24 90° O
Di, 20.02. 7:00 11 2 14 40° NO
Di, 20.02. 1:00 7 2 11 30° NO
Mo, 19.02. 19:00 6 1 7 260° W
Mo, 19.02. 13:00 4 1 14 140° SO
Mo, 19.02. 7:00 4 1 22 130° SO
Mo, 19.02. 1:00 9 2 26 90° O
So, 18.02. 19:00 13 3 24 80° O
Ortszeit Stärke Spitze Richtung
km/h Bft. km/h Grad Sektor
Di, 20.02. 18:00 11 2 22 350° N
Di, 20.02. 17:50 11 2 - 350° N
Di, 20.02. 17:40 11 2 - 360° N
Di, 20.02. 17:30 7 2 13 20° N
Di, 20.02. 17:20 7 2 - 20° N
Di, 20.02. 17:10 7 2 - 20° N
Di, 20.02. 17:00 9 2 19 40° NO
Di, 20.02. 16:30 9 2 17 60° NO
Di, 20.02. 16:00 13 3 20 60° NO
Di, 20.02. 15:30 11 2 18 80° O
Di, 20.02. 15:00 9 2 17 70° O
Ortszeit Untergrenze Bedeckung Gattung
total tief tief mittel hoch
Di, 20.02. 13:00 810 m 8/8 - - - -
Di, 20.02. 7:00 600 m 7/8 6/8 - - -
Di, 20.02. 1:00 750 m 8/8 5/8 - - -
Mo, 19.02. 19:00 660 m 8/8 8/8 - - -
Mo, 19.02. 13:00 480 m 8/8 8/8 - - -
Mo, 19.02. 7:00 390 m 8/8 8/8 - - -
Mo, 19.02. 1:00 270 m 8/8 8/8 - - -
So, 18.02. 19:00 6000 m 2/8 2/8 - - -
Ortszeit Bedeckungsgrad in Achtel und Wolkenuntergrenze
Di, 20.02. 18:00 4(1110m) 5(1800m)
Di, 20.02. 17:50 4(1110m) 5(1800m)
Di, 20.02. 17:40 5(1080m) 6(1500m)
Di, 20.02. 17:30 3(1140m)
Di, 20.02. 17:20 3(1140m)
Di, 20.02. 17:10 3(1140m)
Di, 20.02. 17:00 2(1140m)
Di, 20.02. 16:30 7(4800m)
Di, 20.02. 16:00 8(4500m)
Di, 20.02. 15:30 8(4500m)
Di, 20.02. 15:00 8(4500m)
Ortszeit Luftdruck NN (hPa) Tendenz (hPa in 3 Std.)
Di, 20.02. 13:00 1018 - 0,2
Di, 20.02. 7:00 1018 + 0,2
Di, 20.02. 1:00 1018 - 0,6
Mo, 19.02. 19:00 1019 - 0,5
Mo, 19.02. 13:00 1021 - 0,8
Mo, 19.02. 7:00 1022 - 0,9
Mo, 19.02. 1:00 1025 - 1,1
So, 18.02. 19:00 1026 - 0,5
Ortszeit Luftdruck NN (hPa) Tendenz (hPa in 3 Std.)
Di, 20.02. 18:00 1018 + 0,7
Di, 20.02. 17:50 1018 keine Meldung
Di, 20.02. 17:40 1018 keine Meldung
Di, 20.02. 17:30 1018 + 0,3
Di, 20.02. 17:20 1018 keine Meldung
Di, 20.02. 17:10 1017 keine Meldung
Di, 20.02. 17:00 1017 0,0
Di, 20.02. 16:30 1017 - 0,5
Di, 20.02. 16:00 1017 - 0,8
Di, 20.02. 15:30 1017 - 0,8
Di, 20.02. 15:00 1017 - 0,9
Ortszeit Schneehöhe (cm)
Di, 20.02. 13:00 0
Di, 20.02. 7:00 0
Di, 20.02. 1:00 0
Mo, 19.02. 19:00 0
Mo, 19.02. 13:00 0
Mo, 19.02. 7:00 0
Mo, 19.02. 1:00 0
So, 18.02. 19:00 0
Ortszeit Schneehöhe (cm)
Di, 20.02. 18:00 0
Di, 20.02. 17:50 0
Di, 20.02. 17:40 0
Di, 20.02. 17:30 0
Di, 20.02. 17:20 0
Di, 20.02. 17:10 0
Di, 20.02. 17:00 0
Di, 20.02. 16:30 0
Di, 20.02. 16:00 0
Di, 20.02. 15:30 0
Di, 20.02. 15:00 0
Link zu dieser Seite / Seite empfehlen

Das Wetter in ...